Probability
5 5 5 4 3 3 3 2 1 0 0 0 1 2 2 1 0 0 0 1 2 2 2 1 2 2 1 0 0 0 0 0 0 0 0 0 0 0 0 0 0 1 1
5 4 4 3 2 3 3 2 1 0 0 0 0 1 1 0 0 0 0 1 1 1 1 1 2 3 2 1 0 0 0 0 0 0 0 0 0 0 0 0 0 0 1
4 4 4 3 3 3 3 2 1 0 0 0 0 0 0 0 0 0 0 0 0 0 0 1 2 2 2 1 0 0 0 0 0 0 0 0 0 0 0 0 0 0 0
3 3 3 3 3 2 2 1 0 0 0 0 0 0 0 0 0 0 0 0 0 0 0 1 1 1 1 0 0 0 0 0 0 0 0 0 0 0 1 0 0 0 0
3 3 3 3 1 1 1 0 0 0 0 0 0 0 0 0 0 0 0 0 0 0 0 0 0 0 0 0 0 0 0 0 0 0 0 0 0 0 0 0 0 0 0
3 3 3 2 1 0 0 0 0 0 0 0 0 0 0 0 0 0 1 1 1 0 0 0 0 0 0 0 0 0 0 0 0 0 0 0 0 0 0 0 0 0 0
3 3 2 1 0 0 0 0 0 0 0 0 0 0 0 0 0 0 0 0 0 0 0 0 0 0 0 0 0 0 0 0 0 0 0 0 0 0 0 0 0 0 0
3 3 1 0 0 0 0 0 0 0 0 0 0 0 0 0 0 0 0 0 0 0 0 0 0 0 0 0 0 0 0 0 0 0 0 0 0 0 0 0 0 0 0
3 2 1 0 0 0 0 0 0 0 0 0 0 0 0 0 0 0 0 0 0 0 0 0 0 0 0 0 0 0 0 0 0 0 0 0 0 0 0 0 0 0 0
3 2 1 0 0 0 0 0 0 0 0 0 0 0 0 0 0 0 0 0 0 0 0 0 0 0 0 0 0 0 0 0 0 0 0 0 0 0 0 0 0 0 0
3 3 1 0 0 0 0 0 0 0 0 0 0 0 0 0 0 0 0 0 0 0 0 0 0 0 0 0 0 0 0 0 0 0 0 0 0 0 0 0 0 0 0
3 3 2 1 0 0 0 0 0 0 0 0 0 0 0 0 0 0 0 0 0 0 0 0 0 0 0 0 0 0 0 0 0 0 0 0 0 0 0 0 0 0 0
3 3 2 1 0 0 0 0 0 0 0 0 0 0 0 0 0 0 0 0 0 0 0 0 0 0 0 0 0 0 0 0 0 0 0 0 0 0 0 0 0 0 0
3 3 3 1 0 0 0 0 0 0 0 0 0 0 0 0 0 0 0 0 0 0 0 0 0 0 0 0 0 0 0 0 0 0 0 0 0 0 0 0 0 0 0
2 3 3 2 1 0 0 0 0 0 0 0 0 0 0 0 0 0 0 0 0 0 0 0 0 0 0 0 0 0 0 0 0 0 0 0 0 0 0 0 0 0 0
2 3 3 2 1 0 0 0 0 0 0 0 0 0 0 0 0 0 0 0 0 0 0 0 0 0 0 0 0 0 0 0 0 0 0 0 0 0 0 0 0 0 0
3 3 3 2 1 0 0 0 0 0 0 0 0 0 0 0 0 0 0 0 0 0 0 0 0 0 0 0 0 0 0 0 0 0 0 0 0 0 0 0 0 0 0
3 3 3 2 0 0 0 0 0 0 0 0 0 0 0 0 0 0 0 0 0 0 0 0 0 0 0 0 0 0 0 0 0 0 0 0 0 0 0 0 0 0 0
3 3 3 2 1 0 0 0 0 0 0 0 0 0 0 0 0 0 0 0 0 0 0 0 0 0 0 0 0 0 0 0 0 0 0 0 0 0 0 0 0 0 0
3 3 3 3 2 1 0 0 0 0 0 0 0 0 0 0 0 0 0 0 0 0 0 0 0 0 0 0 0 0 0 0 0 0 0 0 0 0 0 0 0 0 0
3 3 3 3 2 1 0 0 0 0 0 0 0 0 0 0 0 0 0 0 0 0 0 0 0 0 0 0 0 0 0 0 0 0 0 0 0 0 0 0 0 0 0
3 3 3 2 1 1 0 0 0 0 0 0 0 0 0 0 0 0 0 0 0 0 0 0 0 0 0 0 0 0 0 0 0 0 0 0 0 0 0 0 0 0 0
2 2 2 1 0 0 0 0 0 0 0 0 0 0 0 0 0 0 0 0 0 0 0 0 0 0 0 0 0 0 0 0 0 0 0 0 0 0 0 0 0 0 0
1 1 1 0 0 0 0 0 0 0 0 0 0 0 0 0 0 0 0 0 0 0 0 0 0 0 0 0 0 0 0 0 0 0 0 0 0 0 0 0 0 0 0
1 0 0 0 0 0 0 0 0 0 0 0 0 0 0 0 0 0 0 0 0 0 0 0 0 0 0 0 0 0 0 0 0 0 0 0 0 0 0 0 0 0 0
1 0 0 0 0 0 0 0 0 0 0 0 0 0 0 0 0 0 0 0 0 0 0 0 0 0 0 0 0 0 0 0 0 0 0 0 0 0 0 0 0 0 0
Wind_Speed
3 3 2 2 2 2 3 3 4 5 5 5 5 5 5 5 4 4 4 8 8 8 9 10 10 11 11 11 11 11 11 11 11 11 11 11 10 10 10 11 10 10 10
3 3 3 2 2 3 3 3 4 4 4 4 5 5 5 5 5 4 4 5 8 8 8 9 9 10 10 10 10 10 10 10 10 10 10 10 11 10 10 9 9 9 9
3 3 3 2 2 3 4 4 5 4 4 4 5 5 4 5 5 5 4 3 4 7 7 8 8 8 8 9 9 9 9 9 9 9 9 9 9 9 9 9 8 8 8
3 3 3 3 3 3 3 4 4 4 4 4 3 3 3 4 5 4 4 3 3 3 5 8 7 7 7 7 7 7 8 8 8 8 7 7 8 8 8 8 7 7 7
3 3 2 2 3 3 3 3 4 4 4 4 3 3 3 3 3 3 4 3 3 3 3 5 6 6 6 6 6 6 6 7 7 6 6 6 6 6 6 6 6 6 6
3 3 2 3 3 3 3 4 4 4 4 4 4 3 3 2 2 2 2 2 2 3 3 3 3 4 5 5 5 5 5 5 4 5 4 4 4 4 4 4 5 4 4
3 3 2 3 3 3 4 5 4 5 4 4 3 3 2 2 1 1 1 1 2 2 2 2 2 1 2 5 5 4 3 3 3 3 3 2 2 2 3 2 3 3 3
3 2 3 2 3 3 4 5 5 4 3 3 3 3 2 2 1 1 1 0 0 1 1 2 2 1 1 1 3 4 3 2 1 1 1 1 1 1 1 1 1 2 2
3 2 3 3 3 4 4 5 5 6 5 3 2 2 3 3 2 1 1 0 1 1 1 1 1 1 1 0 1 2 2 1 1 1 1 2 2 2 2 1 1 1 2
3 3 3 3 3 3 4 5 5 4 6 5 3 1 1 1 2 2 2 1 1 1 2 1 1 1 1 1 0 0 1 1 2 2 3 3 3 4 3 3 3 3 3
3 3 3 3 3 3 4 5 5 5 4 5 4 3 2 2 2 2 3 2 2 2 2 2 2 2 2 1 1 1 1 1 2 3 4 4 5 4 4 4 4 4 4
3 3 3 3 3 3 4 5 5 6 5 5 4 4 3 3 4 3 3 3 2 2 2 2 2 2 2 2 2 1 2 3 3 3 4 4 4 4 5 5 5 5 5
3 4 3 4 3 3 3 4 5 5 6 6 5 4 4 3 2 2 3 2 2 1 2 3 2 2 2 2 2 2 3 4 4 5 5 5 4 4 5 5 5 5 5
3 4 4 4 4 4 3 4 4 5 5 5 5 4 3 3 3 3 3 3 2 2 3 4 2 3 3 3 2 4 4 4 5 5 5 5 5 5 5 5 5 5 5
3 4 4 4 4 4 4 4 4 5 5 5 4 5 4 3 3 3 3 3 3 4 4 4 3 3 2 3 3 4 4 4 5 5 5 5 5 5 5 5 5 5 5
4 4 5 4 4 4 4 4 4 5 5 5 4 5 4 3 3 3 3 4 4 4 4 3 3 2 3 3 4 5 4 4 6 6 6 5 5 6 6 6 6 6 6
5 5 5 5 5 5 5 5 5 5 6 5 5 6 5 4 4 4 4 4 4 4 4 3 2 2 4 4 3 4 4 5 4 6 6 7 7 6 6 7 6 6 6
5 6 6 6 6 6 6 6 6 6 6 7 7 6 6 5 6 5 4 5 5 5 4 4 3 3 4 5 4 4 4 4 4 5 7 7 7 7 7 7 6 6 6
5 6 6 7 7 7 7 7 7 7 6 7 7 7 7 7 7 5 6 5 5 4 4 4 4 3 3 3 4 4 4 4 4 4 6 7 7 8 7 7 7 6 7
6 6 7 7 7 7 7 7 7 7 7 6 7 7 7 8 8 7 6 6 5 5 5 4 4 3 3 3 4 4 4 4 4 3 5 5 6 7 7 7 7 7 7
6 6 6 6 7 6 7 7 7 7 7 6 6 7 7 7 8 7 6 6 6 5 5 5 4 4 4 4 5 4 5 3 4 3 3 4 4 4 5 6 7 7 7
5 5 6 6 7 6 8 9 8 7 6 6 6 6 6 8 9 10 10 10 9 8 7 6 6 6 6 6 5 4 4 3 4 3 4 4 3 4 4 4 6 7 7
5 5 6 6 6 7 9 10 10 7 7 7 6 6 5 6 8 7 8 9 9 10 10 7 7 7 7 6 5 6 5 5 4 2 3 4 3 4 3 3 6 7 7
5 5 5 6 6 6 8 9 10 7 6 6 6 6 6 6 6 6 6 6 6 6 7 6 6 6 6 6 6 5 5 4 3 2 2 3 3 3 2 3 5 6 6
4 4 5 5 6 6 7 8 8 5 5 5 5 6 6 6 8 8 6 5 4 4 4 5 5 5 6 6 5 3 4 4 3 2 2 3 2 3 3 3 2 4 4
3 3 4 4 5 5 6 6 6 4 4 4 4 5 7 7 9 9 7 6 6 5 4 3 4 4 5 5 6 5 5 4 3 2 2 2 2 1 2 2 1 2 2
Wind_Direction
124 119 110 113 116 113 114 109 105 100 96 93 94 97 98 93 88 88 82 64 68 90 103 103 98 96 95 92 89 86 84 81 79 76 72 70 70 72 72 71 69 68 67
130 126 118 114 117 115 113 115 113 108 100 92 89 89 91 91 85 83 89 79 63 71 91 97 98 98 97 95 93 88 85 83 79 77 74 70 66 65 66 68 67 63 63
138 132 133 124 117 120 121 117 114 111 101 94 88 81 79 80 88 84 80 82 82 66 70 85 92 95 95 95 94 93 88 85 81 76 72 70 67 63 64 64 62 59 58
138 136 138 133 131 137 136 127 128 121 113 105 96 81 75 73 76 77 77 76 78 80 75 71 77 84 92 93 93 93 91 88 85 79 76 73 70 65 61 61 58 54 53
141 135 138 139 140 144 142 135 135 134 125 116 103 87 76 72 72 78 79 71 69 73 83 82 73 67 78 90 95 94 91 88 84 83 79 76 73 69 61 55 53 51 46
138 129 141 148 142 144 147 143 140 131 127 120 104 85 69 64 66 72 82 83 78 81 81 81 88 75 68 76 90 97 96 94 90 85 83 78 73 69 65 54 45 44 40
144 139 137 155 150 151 155 149 140 138 135 137 127 109 80 63 66 67 70 87 86 80 87 82 71 76 88 80 74 83 100 102 102 87 78 75 70 61 54 50 40 32 25
156 154 153 159 157 153 158 158 154 151 149 175 167 155 159 167 130 54 56 77 108 115 109 102 97 81 79 96 77 65 65 71 100 89 63 24 12 347 354 5 6 10 4
166 173 165 157 170 169 171 171 171 172 168 184 209 199 182 186 150 167 181 211 217 198 164 141 148 148 149 149 133 88 51 15 326 285 298 297 298 292 287 294 315 327 324
177 188 172 172 174 180 179 179 179 183 178 180 187 234 269 143 177 170 180 192 221 238 227 210 214 202 204 203 165 70 12 321 303 294 283 277 277 281 284 288 293 296 300
191 189 183 183 181 185 187 184 183 188 194 194 187 178 176 180 201 201 200 189 201 223 243 240 237 229 217 218 231 224 274 260 265 280 283 279 275 274 277 285 288 286 293
191 193 194 197 194 190 198 192 190 193 196 197 197 194 190 192 187 198 203 202 214 206 229 240 243 235 226 221 222 254 264 261 259 264 276 285 282 279 283 287 296 295 293
200 202 202 205 206 205 204 201 195 196 198 200 202 206 209 212 191 195 191 200 228 230 228 229 231 232 232 230 213 224 239 258 257 257 262 271 278 284 288 287 292 295 295
208 206 212 214 212 207 207 204 204 199 198 202 208 209 212 207 198 197 190 192 217 232 230 226 209 221 229 237 227 233 229 244 254 255 260 267 273 282 286 289 291 296 297
207 202 210 217 217 215 214 210 210 204 201 202 206 209 213 211 209 205 200 208 213 228 233 217 213 207 223 237 225 237 239 236 246 251 256 265 268 272 276 277 281 288 292
206 200 205 211 215 215 212 212 214 210 205 207 206 208 213 213 209 205 209 217 230 236 241 222 225 226 231 243 235 241 239 241 245 248 249 256 263 263 265 267 267 274 281
206 205 207 209 212 215 213 212 215 214 209 209 209 210 214 212 216 208 209 214 222 226 238 251 242 233 232 239 238 244 240 240 236 239 247 252 256 259 261 260 260 266 274
213 211 211 212 213 214 214 215 215 216 218 213 210 210 213 212 221 214 209 216 219 219 226 237 240 231 237 236 240 244 244 243 243 237 245 250 253 257 257 254 252 257 267
218 217 213 214 215 216 216 219 219 220 223 220 213 212 213 211 217 217 215 218 218 217 225 230 238 242 242 230 238 241 244 244 243 239 243 246 249 254 255 254 251 254 263
219 218 217 217 217 216 216 217 220 223 223 223 218 218 217 214 216 216 216 217 215 216 218 221 230 234 237 230 231 233 240 237 238 238 242 246 249 249 251 252 252 256 257
222 219 218 217 217 216 215 216 217 220 221 222 221 220 220 219 220 220 220 214 210 214 214 216 222 228 227 218 225 228 240 245 243 237 244 241 240 242 241 242 243 252 259
221 217 216 215 215 218 221 221 220 218 220 220 222 221 219 216 217 224 229 225 216 213 215 218 223 225 230 229 228 224 228 231 243 221 243 246 240 245 245 242 246 252 257
220 219 218 217 220 225 223 221 219 220 218 219 221 220 219 219 217 220 225 228 225 225 224 224 227 230 231 226 220 221 226 234 246 238 241 250 244 250 254 253 252 250 254
222 221 223 223 225 229 229 224 217 218 219 219 219 220 220 217 214 213 216 221 224 227 230 231 231 235 238 229 222 225 231 243 266 244 234 256 260 265 273 260 251 251 255
229 227 225 224 227 230 228 223 217 211 212 217 216 219 221 216 209 207 205 208 219 230 231 234 239 238 235 230 221 210 210 217 239 236 227 249 261 283 278 265 253 257 265
226 227 227 226 226 229 221 214 213 208 210 215 219 220 223 222 210 204 201 200 212 219 210 213 222 229 232 225 219 219 215 219 233 230 201 227 242 265 274 271 278 284 273